Location: Newark
(16.3678°N, 77.8722°E)
Time: 17:08:04
(UTC+00:00)

S-56A Canister/Altair - Pass Details

Date: 17 December 2019
Orbit: 634 x 2498 km, 38.9° (Epoch: 28 January)

Event Time Altitude Azimuth Distance (km) Brightness Sun altitude
Rises 04:13:06 0° 283° (WNW) 5,239 11.4 35.8°
Reaches altitude 10° 04:16:59 10° 294° (WNW) 4,497 11.1 36.4°
Maximum altitude 04:27:51 30° 351° (N) 3,622 10.8 38.1°
Drops below altitude 10° 04:40:19 10° 47° (NE) 5,153 11.8 40.0°
Sets 04:45:13 0° 57° (ENE) 6,098 12.2 40.8°
